• In Uzbekistan
  • List of Countries
  • For 7 days
  • Water Temperature
  • Satellite Maps
  • Weather Map
  • Weather Widgets
  • user-avatar
    Login

    Hourly Weather Baranagar

    Today, 13 December, Wednesday

    Time Temperature Precipitation Wind Pressure Humidity
    00:00 +23°C° 0 mm 0 mps 760 mmHg 66%
    01:00 +22°C° 0 mm 0 mps 760 mmHg 67%
    02:00 +24°C° 0 mm 1 mps 759 mmHg 68%
    03:00 +24°C° 0 mm 1 mps 759 mmHg 69%
    04:00 +23°C° 0 mm 1 mps 759 mmHg 70%
    05:00 +23°C° 0 mm 1 mps 760 mmHg 71%
    06:00 +23°C° 0 mm 1 mps 760 mmHg 76%
    07:00 +24°C° 0 mm 1 mps 760 mmHg 71%
    08:00 +25°C° 0 mm 1 mps 761 mmHg 66%
    09:00 +26°C° 0 mm 1 mps 761 mmHg 61%
    10:00 +28°C° 0 mm 1 mps 761 mmHg 55%
    11:00 +29°C° 0 mm 1 mps 761 mmHg 49%
    12:00 +30°C° 0 mm 2 mps 761 mmHg 46%
    13:00 +30°C° 0 mm 2 mps 760 mmHg 43%
    14:00 +31°C° 0 mm 2 mps 760 mmHg 40%
    15:00 +31°C° 0 mm 2 mps 759 mmHg 37%
    16:00 +30°C° 0 mm 2 mps 759 mmHg 40%
    17:00 +29°C° 0 mm 2 mps 759 mmHg 43%
    18:00 +28°C° 0 mm 2 mps 759 mmHg 46%
    19:00 +27°C° 0 mm 2 mps 760 mmHg 47%
    20:00 +27°C° 0 mm 1 mps 760 mmHg 48%
    21:00 +26°C° 0 mm 1 mps 760 mmHg 49%
    22:00 +25°C° 0 mm 1 mps 760 mmHg 50%
    23:00 +25°C° 0 mm 2 mps 760 mmHg 51%

    Tomorrow, 14 December, Thursday

    Time Temperature Precipitation Wind Pressure Humidity
    00:00 +24°C° 0 mm 2 mps 760 mmHg 51%
    01:00 +24°C° 0 mm 2 mps 760 mmHg 52%
    02:00 +24°C° 0 mm 2 mps 760 mmHg 52%
    03:00 +23°C° 0 mm 2 mps 760 mmHg 53%
    04:00 +23°C° 0 mm 2 mps 760 mmHg 53%
    05:00 +21°C° 0 mm 2 mps 760 mmHg 54%
    06:00 +21°C° 0 mm 2 mps 760 mmHg 55%
    07:00 +23°C° 0 mm 2 mps 761 mmHg 52%
    08:00 +25°C° 0 mm 2 mps 761 mmHg 50%
    09:00 +26°C° 0 mm 2 mps 762 mmHg 47%
    10:00 +28°C° 0 mm 3 mps 762 mmHg 43%
    11:00 +29°C° 0 mm 3 mps 762 mmHg 38%
    12:00 +31°C° 0 mm 3 mps 761 mmHg 34%
    13:00 +31°C° 0 mm 3 mps 761 mmHg 33%
    14:00 +31°C° 0 mm 3 mps 760 mmHg 31%
    15:00 +33°C° 0 mm 3 mps 759 mmHg 30%
    16:00 +30°C° 0 mm 3 mps 760 mmHg 33%
    17:00 +29°C° 0 mm 2 mps 760 mmHg 36%
    18:00 +27°C° 0 mm 1 mps 760 mmHg 39%
    19:00 +27°C° 0 mm 1 mps 760 mmHg 40%
    20:00 +26°C° 0 mm 1 mps 761 mmHg 41%
    21:00 +26°C° 0 mm 1 mps 761 mmHg 42%
    22:00 +25°C° 0 mm 2 mps 761 mmHg 44%
    23:00 +24°C° 0 mm 2 mps 761 mmHg 46%

    Day after tomorrow, 15 December, Friday

    Time Temperature Precipitation Wind Pressure Humidity
    00:00 +24°C° 0 mm 2 mps 761 mmHg 47%
    01:00 +24°C° 0 mm 2 mps 761 mmHg 49%
    02:00 +23°C° 0 mm 2 mps 760 mmHg 51%
    03:00 +23°C° 0 mm 2 mps 760 mmHg 53%
    04:00 +21°C° 0 mm 2 mps 760 mmHg 54%
    05:00 +21°C° 0 mm 2 mps 760 mmHg 56%
    06:00 +21°C° 0 mm 2 mps 760 mmHg 57%
    07:00 +22°C° 0 mm 3 mps 761 mmHg 53%
    08:00 +24°C° 0 mm 3 mps 762 mmHg 50%
    09:00 +25°C° 0 mm 3 mps 763 mmHg 46%
    10:00 +27°C° 0 mm 4 mps 762 mmHg 40%
    11:00 +28°C° 0 mm 4 mps 762 mmHg 34%
    12:00 +30°C° 0 mm 5 mps 762 mmHg 28%
    13:00 +30°C° 0 mm 4 mps 761 mmHg 27%
    14:00 +30°C° 0 mm 4 mps 760 mmHg 26%
    15:00 +30°C° 0 mm 4 mps 759 mmHg 24%
    16:00 +29°C° 0 mm 4 mps 760 mmHg 27%
    17:00 +27°C° 0 mm 3 mps 760 mmHg 29%
    18:00 +26°C° 0 mm 2 mps 760 mmHg 32%
    19:00 +25°C° 0 mm 2 mps 761 mmHg 32%
    20:00 +24°C° 0 mm 2 mps 762 mmHg 33%
    21:00 +24°C° 0 mm 2 mps 762 mmHg 34%
    22:00 +23°C° 0 mm 2 mps 762 mmHg 34%
    23:00 +21°C° 0 mm 2 mps 762 mmHg 35%

    16 December, Saturday

    Time Temperature Precipitation Wind Pressure Humidity
    00:00 +21°C° 0 mm 2 mps 762 mmHg 36%
    01:00 +20°C° 0 mm 2 mps 762 mmHg 37%
    02:00 +20°C° 0 mm 2 mps 762 mmHg 38%
    03:00 +19°C° 0 mm 2 mps 761 mmHg 39%
    04:00 +19°C° 0 mm 2 mps 761 mmHg 40%
    05:00 +19°C° 0 mm 2 mps 761 mmHg 42%
    06:00 +18°C° 0 mm 2 mps 762 mmHg 43%
    07:00 +19°C° 0 mm 3 mps 762 mmHg 41%
    08:00 +21°C° 0 mm 3 mps 763 mmHg 39%
    09:00 +22°C° 0 mm 4 mps 764 mmHg 36%
    10:00 +25°C° 0 mm 4 mps 763 mmHg 32%
    11:00 +26°C° 0 mm 4 mps 763 mmHg 29%
    12:00 +28°C° 0 mm 4 mps 762 mmHg 25%
    13:00 +28°C° 0 mm 4 mps 762 mmHg 24%
    14:00 +29°C° 0 mm 4 mps 761 mmHg 23%
    15:00 +29°C° 0 mm 4 mps 760 mmHg 22%
    16:00 +28°C° 0 mm 3 mps 761 mmHg 24%
    17:00 +26°C° 0 mm 3 mps 761 mmHg 27%
    18:00 +25°C° 0 mm 2 mps 761 mmHg 30%
    19:00 +24°C° 0 mm 2 mps 762 mmHg 30%
    20:00 +23°C° 0 mm 2 mps 762 mmHg 31%
    21:00 +23°C° 0 mm 2 mps 763 mmHg 32%
    22:00 +21°C° 0 mm 2 mps 763 mmHg 33%
    23:00 +20°C° 0 mm 2 mps 763 mmHg 34%

    17 December, Sunday

    Time Temperature Precipitation Wind Pressure Humidity
    00:00 +20°C° 0 mm 2 mps 763 mmHg 35%
    01:00 +19°C° 0 mm 2 mps 762 mmHg 36%
    02:00 +19°C° 0 mm 2 mps 762 mmHg 37%
    03:00 +18°C° 0 mm 2 mps 762 mmHg 39%
    04:00 +18°C° 0 mm 2 mps 762 mmHg 40%
    05:00 +18°C° 0 mm 2 mps 762 mmHg 41%
    06:00 +17°C° 0 mm 2 mps 763 mmHg 42%
    07:00 +18°C° 0 mm 2 mps 763 mmHg 40%
    08:00 +20°C° 0 mm 2 mps 764 mmHg 38%
    09:00 +21°C° 0 mm 2 mps 765 mmHg 36%
    10:00 +24°C° 0 mm 2 mps 764 mmHg 32%
    11:00 +25°C° 0 mm 2 mps 764 mmHg 29%
    12:00 +27°C° 0 mm 2 mps 763 mmHg 26%
    13:00 +28°C° 0 mm 2 mps 763 mmHg 25%
    14:00 +28°C° 0 mm 2 mps 762 mmHg 24%
    15:00 +29°C° 0 mm 2 mps 761 mmHg 23%
    16:00 +27°C° 0 mm 2 mps 761 mmHg 26%
    17:00 +26°C° 0 mm 2 mps 762 mmHg 29%
    18:00 +24°C° 0 mm 2 mps 762 mmHg 32%
    19:00 +24°C° 0 mm 1 mps 762 mmHg 34%
    20:00 +23°C° 0 mm 1 mps 763 mmHg 35%
    21:00 +22°C° 0 mm 1 mps 763 mmHg 37%
    22:00 +22°C° 0 mm 1 mps 763 mmHg 38%
    23:00 +22°C° 0 mm 1 mps 763 mmHg 39%

    18 December, Monday

    Time Temperature Precipitation Wind Pressure Humidity
    00:00 +20°C° 0 mm 2 mps 763 mmHg 41%
    01:00 +20°C° 0 mm 2 mps 762 mmHg 43%
    02:00 +19°C° 0 mm 2 mps 762 mmHg 45%
    03:00 +19°C° 0 mm 2 mps 762 mmHg 47%
    04:00 +19°C° 0 mm 2 mps 762 mmHg 49%
    05:00 +18°C° 0 mm 2 mps 762 mmHg 51%
    06:00 +18°C° 0 mm 2 mps 762 mmHg 54%
    07:00 +19°C° 0 mm 2 mps 763 mmHg 51%
    08:00 +21°C° 0 mm 2 mps 764 mmHg 49%
    09:00 +23°C° 0 mm 2 mps 764 mmHg 46%
    10:00 +24°C° 0 mm 2 mps 764 mmHg 43%
    11:00 +26°C° 0 mm 2 mps 763 mmHg 40%
    12:00 +27°C° 0 mm 2 mps 763 mmHg 37%
    13:00 +28°C° 0 mm 2 mps 762 mmHg 35%
    14:00 +28°C° 0 mm 2 mps 762 mmHg 33%
    15:00 +29°C° 0 mm 2 mps 761 mmHg 31%
    16:00 +28°C° 0 mm 2 mps 761 mmHg 34%
    17:00 +26°C° 0 mm 2 mps 761 mmHg 37%
    18:00 +25°C° 0 mm 1 mps 762 mmHg 40%
    19:00 +24°C° 0 mm 1 mps 762 mmHg 41%
    20:00 +24°C° 0 mm 1 mps 762 mmHg 42%
    21:00 +23°C° 0 mm 1 mps 763 mmHg 44%
    22:00 +23°C° 0 mm 2 mps 763 mmHg 45%
    23:00 +21°C° 0 mm 2 mps 762 mmHg 45%
    Show more